Weather in Fernie

Canada     49°30′17″N   115°04′07″W
temp.,
°C
wind,
m/s
gust,
m/s
humid.,
%
clouds,
%
prec.,
mm/h
press.,
hPa
HPBL,
m
24 january, mon
mon2401:00−6sw1198100 0.1 102531
04:00−6sw1193100 0.2 102416
07:00−6ene1191100 0.1 102412
10:00−5nne1294100 0.4 1025238
13:00−3nnw128994 0.6 1024433
16:00−4wsw119288 0.7 102624
19:00−7s019887 0.0 103032
22:00−8sse119990 0.1 103055
25 january, tue
tue2501:00−9sw11100100 0.1 1032187
04:00−9wsw1298100 0.1 1031216
07:00−10sw1298100 0.1 1031115
10:00−8sw2396100 0.3 1030291
13:00−7sw3394100 0.2 1027418
16:00−8sw2497100 0.3 1025288
19:00−11ssw1399100 0.2 102649
22:00−11ssw1398100 0.3 102567
26 january, wed
wed2601:00−10sw1298100 0.3 102363
04:00−13ssw1198100 0.4 102410
07:00−15sse0199100 0.2 10269
10:00−8sw1194100 0.3 1024276
13:00−6nw1187100 0.1 1024560
16:00−9wsw119730 0.1 102910
19:00−16e2110086 0.0 103910
22:00−17ene219968 0.0 104212
27 january, thu
thu2701:00−18e2110085 0.0 104411
04:00−18ese11100100 0.1 104410
07:00−16sse11100100 0.1 104326
10:00−11sw2298100 0.1 1040194
13:00−8sw2393100 0.0 1037330
16:00−11ssw11100100 0.1 103927
19:00−17ese1110093 0.0 104410
22:00−16se11100100 0.1 104310
28 january, fri
fri2801:00−16sse11100100 0.1 104310
04:00−13s12100100 0.1 104173
07:00−14s12100100 0.1 104139
10:00−10sw239689 0.1 1037207
13:00−7sw3491100 0.0 1034274
16:00−10ssw2399100 0.0 103453
19:00−12s23100100 0.0 103543
22:00−10ssw24100100 0.0 1032118